Regional Weather Roundup
Issued by NWS

Home | Current Version | Previous Version | Text Only | Print | Product List | Glossary Off
Versions: 1 2 3 4 5 6 7 8 9 10 11 12 13 14 15 16 17 18 19 20 21 22 23 24 25 26 27 28 29 30 31 32 33 34 35 36 37 38 39 40 41 42 43 44 45 46 47 48 49 50

000
ASUS43 KMPX 202001
RWRMN
WEATHER ROUNDUP FOR MINNESOTA
NATIONAL WEATHER SERVICE TWIN CITIES/CHANHASSEN MN
300 PM CDT FRI APR 20 2018


NOTE: "FAIR" INDICATES FEW OR NO CLOUDS BELOW 12,000 FEET WITH NO
SIGNIFICANT WEATHER AND/OR OBSTRUCTIONS TO VISIBILITY. N/A MEANS
CURRENT SKY AND/OR WEATHER CONDITIONS ARE NOT AVAILABLE.

MNZ060>063-068>070-202100-
   Twin Cities Metro

CITY           SKY/WX    TMP DP  RH WIND       PRES   REMARKS
TWIN CITIES    FAIR      50  17  27 VRB6      30.46F
ST PAUL        FAIR      51  22  31 S5        30.47F
CRYSTAL        FAIR      51  20  29 MISG      30.45F
BLAINE         PTSUNNY   54  19  26 S6        30.45F
LAKEVILLE      FAIR      46  27  46 SE3       30.47S
EDEN PRAIRIE   FAIR      49  24  37 S5        30.45F
SOUTH ST PAUL  FAIR      50  21  31 CALM      30.46F
LAKE ELMO      FAIR      50  25  37 SW7       30.47S
$$
MNZ001>005-007-008-013>017-022>024-027-028-202100-
   Northwest Minnesota

CITY           SKY/WX    TMP DP  RH WIND       PRES   REMARKS
BEMIDJI        FAIR      56  28  34 W6        30.37F
HALLOCK        FAIR      57  37  47 S13G20    30.36F
ROSEAU         FAIR      57  37  47 W7        30.37F
WARROAD        FAIR      57  32  38 W9        30.37S
THIEF RVR FALL FAIR      53  34  48 SW7       30.40F
CROOKSTON      FAIR      54  34  47 SW6       30.40F
FOSSTON        FAIR      55  28  35 SW8       30.39F
DETROIT LAKES  FAIR      54  25  32 SW10      30.40F
MOORHEAD       FAIR      54  27  35 S12       30.40F
PARK RAPIDS    FAIR      53  26  35 S8        30.39F
MAHNOMEN       FAIR      54  30  40 SW8       30.38F
$$
MNZ006-009>011-018-025>026-202100-
   North Central Minnesota

CITY           SKY/WX    TMP DP  RH WIND       PRES   REMARKS
BAUDETTE       FAIR      57  27  31 CALM      30.35F
FLAG ISLAND    FAIR      45  25  45 SE12      30.36S
INTL FALLS     FAIR      56  21  25 CALM      30.37F
WASKISH        FAIR      54  32  43 W8        30.39S
BIG FORK       FAIR      57  21  24 S5        30.38S
LONGVILLE      FAIR      55  27  33 W6        30.40S
GRAND RAPIDS   FAIR      54  20  26 VRB3      30.40F
CRANE LAKE     FAIR      55  12  18 S3        30.38F
ORR            FAIR      55  16  21 NW5       30.35F
COOK           FAIR      55  18  22 CALM      30.38F
WALKER         FAIR      55  24  30 SW12      30.39S
$$
MNZ012-019>021-037-202100-
   Northeast Minnesota

CITY           SKY/WX    TMP DP  RH WIND       PRES   REMARKS
DULUTH         FAIR      54  24  31 SW8       30.39F
ELY            FAIR      55  10  16 CALM      30.37F
HIBBING        FAIR      56  19  23 NE6       30.37F
EVELETH        FAIR      58  19  22 S5        30.39S
DULUTH HARBOR  FAIR      54  27  35 E7        30.41F
TWO HARBORS    FAIR      61  30  31 S12       30.38F
SILVER BAY     FAIR      57  21  24 S10G16    30.37F
GRAND MARAIS     N/A     37  33  85 S3        30.42F
G MARAIS ARPRT FAIR      52   9  17 S7        30.40F
$$
MNZ029>031-032-039>041-046>048-054>057-064-202100-
   West Central Minnesota

CITY           SKY/WX    TMP DP  RH WIND       PRES   REMARKS
FERGUS FALLS   FAIR      52  25  35 S12       30.38F
WHEATON        MOSUNNY   52  36  54 SE9       30.41S
MORRIS         PTSUNNY   52  37  58 SE9       30.39F
ALEXANDRIA     FAIR      53  20  27 S9        30.41F
ELBOW LAKE     FAIR      52  27  38 SE9       30.40F
WADENA         FAIR      52  25  35 S9        30.40F
GLENWOOD       FAIR      52  25  35 SE6       30.42F
APPLETON       PTSUNNY   50  32  50 SE12      30.41S
BENSON         CLOUDY    54  34  47 SE8       30.43F
ORTONVILLE     CLOUDY    48  34  57 SE9       30.40S
MADISON        MOSUNNY   45  34  65 SE10      30.42S
WILLMAR        FAIR      46  34  61 SE8       30.45F
$$
MNZ033>034-036-042>043-049>051-058-059-202100-
   Central Minnesota

CITY           SKY/WX    TMP DP  RH WIND       PRES   REMARKS
ST CLOUD       FAIR      50  23  34 SW9       30.44F
SAUK CENTRE    FAIR      50  22  33 SE5       30.42F
PAYNESVILLE    FAIR      48  29  48 SE6       30.44F
AITKIN         FAIR      52  25  35 S7        30.40F
PINE RIVER     FAIR      52  28  40 SW8       30.43S
BRAINERD       FAIR      52  21  29 S8        30.42F
STAPLES        FAIR      52  18  25 S8        30.42F
LONG PRAIRIE   FAIR      50  23  34 E3        30.42F
LITTLE FALLS   FAIR      50  10  20 S5        30.44F
LITCHFIELD     FAIR      46  21  36 SE7       30.45F
BUFFALO        FAIR      47  23  39 S5        30.47F
MAPLE LAKE     FAIR      48  27  44 S3        30.47F
HUTCHINSON     FAIR      45  29  53 SE6       30.47F
$$
MNZ037-044-045-052-053-202100-
   East Central Minnesota

CITY           SKY/WX    TMP DP  RH WIND       PRES   REMARKS
PRINCETON      FAIR      54  21  28 SW7       30.45F
MORA           FAIR      50  23  34 SW5       30.46F
CAMBRIDGE      FAIR      54  30  40 SW7       30.45F
RUSH CITY      FAIR      51  19  28 S5        30.45F
MOOSE LAKE     FAIR      55  28  35 S7        30.40F
HINCKLEY       FAIR      54  28  37 SW8       30.44S
CLOQUET        FAIR      55  18  22 W7        30.40S
MCGREGOR       FAIR      54  27  35 SW8       30.41F
$$
MNZ071>073-080-081-089-090-097-098-202100-
   Southwest Minnesota

CITY           SKY/WX    TMP DP  RH WIND       PRES   REMARKS
MONTEVIDEO     CLOUDY    48  34  57 S9        30.43S
GRANITE FALLS  MOSUNNY   45  33  63 SE12      30.45R
CANBY          CLOUDY    43  33  65 SE7       30.42F
MARSHALL       MOSUNNY   42  30  62 SE10      30.42F
REDWOOD FALLS  MOSUNNY   42  30  62 SE13      30.44F
OLIVIA         MOSUNNY   46  34  61 SE10      30.42F
PIPESTONE      MOSUNNY  N/A N/A N/A SE8       30.38F
WINDOM         PTSUNNY   39  21  48 SE7       30.43S
WORTHINGTON    CLOUDY    42  31  64 SE9       30.41F
JACKSON        CLOUDY    37  28  70 SE8       30.43F
TRACY          CLOUDY    42  33  69 SE7       30.41F
SLAYTON        MOSUNNY   39  32  77 SE10      30.42S
$$
MNZ065>067-074>077-082>085-091>093-202100-
   South Central Minnesota

CITY           SKY/WX    TMP DP  RH WIND       PRES   REMARKS
MANKATO        FAIR      43  26  51 SE7       30.46F
NEW ULM        MOSUNNY   43  25  49 S8        30.45F
ST JAMES       MOSUNNY   39  27  60 E9        30.46F
FAIRMONT       MOSUNNY   38  27  64 E9        30.45F
GLENCOE        FAIR      45  25  46 CALM      30.46F
OWATONNA       FAIR      46  30  53 SW5       30.47F
WASECA         FAIR      41  28  60 CALM      30.48F
ALBERT LEA     FAIR      43  18  36 CALM      30.46F
$$
MNZ078>079-086>088-094>096-202100-
   Southeast Minnesota

CITY           SKY/WX    TMP DP  RH WIND       PRES   REMARKS
ROCHESTER      FAIR      43  30  60 SW8       30.47S
RED WING       FAIR      52  16  24 S7        30.46S
STANTON        FAIR      47  29  51 SW7       30.46F
DODGE CENTER   FAIR      45  25  45 CALM      30.47F
WINONA         FAIR      54  23  30 CALM      30.44F
AUSTIN         FAIR      43  25  49 SE5       30.46F
PRESTON        FAIR      45  25  44 S6        30.47F
$$
ABBREVIATIONS USED IN REMARKS
   TC - TEMPERATURES IN CELSIUS
  WCI - WIND CHILL INDEX
   HX - HEAT INDEX
  VSB - VISIBILITY
$$




USA.gov is the U.S. government's official web portal to all federal, state and local government web resources and services.